Big Delta, AK

5:21 AM AKDT on July 21, 2017 (GMT -0800)
Allen Army Air Field

Weather History for PABI - March, 2013

Change the Weather History Date:

Tuesday, March 5, 2013

  Actual Average Record
Temperature  
Mean Temperature 18 °F -  
Max Temperature 27 °F 17 °F 44 °F (2008)
Min Temperature 8 °F 0 °F -27 °F (2012)
Degree Days  
Heating Degree Days 48    
Moisture  
Dew Point 7 °F    
Average Humidity 61    
Maximum Humidity 77    
Minimum Humidity 36    
Precipitation  
Precipitation 0.00 in - - ()
Sea Level Pressure  
Sea Level Pressure 30.17 in    
Wind  
Wind Speed 7 mph (ESE)    
Max Wind Speed 12 mph    
Max Gust Speed -    
Visibility 10 miles    
Events      
Averages and records for this station are not official NWS values.
T = Trace of Precipitation, MM = Missing Value Source: NWS Daily Summary

Daily Weather History Graph

Daily Weather History Graph

Search for Another Location

Airport or City:

Trip Planner

Search our weather history database for the weather conditions in past years. The results will help you decide how hot, cold, wet, or windy it might be!

Date:

Astronomy

Mar. 05, 2013 Rise Set
Actual Time 7:34 AM AKST 6:15 PM AKST
Civil Twilight 6:47 AM AKST 7:02 PM AKST
Nautical Twilight 5:52 AM AKST 7:58 PM AKST
Astronomical Twilight 4:54 AM AKST 8:56 PM AKST
Moon 4:42 AM AKST (3/5) 10:17 AM AKST (3/5)
Length of Visible Light 12h 15m
Length of Day
10h 40m
Last Quarter, 39% of the Moon is Illuminated
Mar 5
Last Quarter
Mar 11
New
Mar 19
First Quarter
Mar 27
Full
Apr 2
Last Quarter

Hourly Weather History & Observations

Time (AKST) Temp. Windchill Dew Point Humidity Pressure Visibility Wind Dir Wind Speed Gust Speed Precip Events Conditions
12:53 AM 14.0 °F 3.9 °F 6.1 °F 71% 30.35 in 10.0 mi ESE 6.9 mph - N/A   Clear
1:53 AM 14.0 °F 5.1 °F 6.1 °F 71% 30.33 in 10.0 mi East 5.8 mph - N/A   Clear
2:53 AM 14.0 °F 6.5 °F 6.1 °F 71% 30.32 in 10.0 mi East 4.6 mph - N/A   Clear
3:53 AM 12.9 °F 0.7 °F 6.1 °F 74% 30.29 in 10.0 mi ESE 9.2 mph - N/A   Clear
4:53 AM 12.9 °F 3.8 °F 6.1 °F 74% 30.28 in 10.0 mi SE 5.8 mph - N/A   Clear
5:53 AM 12.0 °F 5.9 °F 5.0 °F 73% 30.28 in 10.0 mi SE 3.5 mph - N/A   Clear
6:53 AM 10.9 °F 4.7 °F 5.0 °F 77% 30.27 in 10.0 mi NNE 3.5 mph - N/A   Mostly Cloudy
7:53 AM 10.9 °F - 5.0 °F 77% 30.26 in 10.0 mi Calm Calm - N/A   Overcast
8:53 AM 15.1 °F 5.2 °F 7.0 °F 70% 30.23 in 10.0 mi ESE 6.9 mph - N/A   Overcast
9:53 AM 18.0 °F 6.9 °F 8.1 °F 65% 30.22 in 10.0 mi ESE 9.2 mph - N/A   Overcast
10:53 AM 19.9 °F 8.6 °F 8.1 °F 60% 30.20 in 10.0 mi ESE 10.4 mph - N/A   Overcast
11:53 AM 21.0 °F 12.4 °F 9.0 °F 60% 30.19 in 10.0 mi East 6.9 mph - N/A   Overcast
12:53 PM 25.0 °F 16.3 °F 9.0 °F 51% 30.17 in 10.0 mi East 8.1 mph - N/A   Overcast
1:53 PM 26.1 °F 17.6 °F 10.0 °F 51% 30.14 in 10.0 mi East 8.1 mph - N/A   Overcast
2:53 PM 26.1 °F 16.2 °F 10.0 °F 51% 30.12 in 10.0 mi East 10.4 mph - N/A   Overcast
3:53 PM 27.0 °F 16.7 °F 10.0 °F 49% 30.10 in 10.0 mi ESE 11.5 mph - N/A   Overcast
4:53 PM 27.0 °F 17.3 °F 10.9 °F 51% 30.07 in 10.0 mi East 10.4 mph - N/A   Overcast
5:53 PM 26.1 °F 18.4 °F 10.0 °F 51% 30.06 in 10.0 mi East 6.9 mph - N/A   Mostly Cloudy
6:53 PM 23.0 °F 13.1 °F 9.0 °F 55% 30.06 in 10.0 mi East 9.2 mph - N/A   Scattered Clouds
7:53 PM 19.9 °F 10.1 °F 8.1 °F 60% 30.06 in 10.0 mi ESE 8.1 mph - N/A   Scattered Clouds
8:53 PM 19.0 °F 12.3 °F 7.0 °F 59% 30.04 in 10.0 mi ESE 4.6 mph - N/A   Mostly Cloudy
9:53 PM 18.0 °F 9.8 °F 7.0 °F 62% 30.03 in 10.0 mi ESE 5.8 mph - N/A   Clear
10:53 PM 16.0 °F 6.3 °F 6.1 °F 65% 30.02 in 10.0 mi East 6.9 mph - N/A   Clear
11:53 PM 15.1 °F - 5.0 °F 64% 30.02 in 10.0 mi Calm Calm - N/A   Clear